This demonstration page uses our WeatherBlox Daily Observations layout. Learn more.

Left ArrowRight Arrow

Hourly Observations for October 15, 2020

Temp ( °F °C ) Dew Point ( °F °C ) Humidity (%) Winds ( mph kmh ) Pressure ( in mb ) Visibility ( mi km ) Precip ( " mm )
12:54 am 00:54 Clear with Light Rain 51 10.6 33 0.6 50 50 N 14 22 30.02 1017 10 16.0934 0.001 0.001
1:54 am 01:54 Clear 50 10 33 0.6 52 52 N 10 17 30.03 1017 10 16.0934 0.001 0.001
2:54 am 02:54 Clear 48 8.9 32 0 54 54 NNW 7 11 30.06 1018 10 16.0934 0.001 0.001
3:54 am 03:54 Clear 48 8.9 32 0 54 54 NNW 9 15 30.08 1019 10 16.0934 0 0
4:54 am 04:54 Clear 45 7.2 32 0 61 61 NNW 7 11 30.12 1020 10 16.0934 0.001 0.001
5:54 am 05:54 Clear 44 6.7 32 0 63 63 N 9 15 30.15 1021 10 16.0934 0 0
6:54 am 06:54 Clear 44 6.7 31 -0.6 60 60 NW 7 11 30.18 1022 10 16.0934 0 0
7:54 am 07:54 Sunny 42 5.6 23 -5 47 47 NNW 9 15 30.2 1023 10 16.0934 0 0
8:54 am 08:54 Sunny 43 6.1 23 -5 45 45 N 10 17 30.22 1023 10 16.0934 0 0
9:54 am 09:54 Sunny 46 7.8 20 -6.7 35 35 N 15 24 30.25 1024 10 16.0934 0 0
10:54 am 10:54 Sunny 49 9.4 14 -10 25 25 NW 12 19 30.26 1025 10 16.0934 0 0
11:54 am 11:54 Sunny 51 10.6 14 -10 23 23 NW 10 17 30.26 1025 10 16.0934 0 0
12:54 pm 12:54 Sunny 52 11.1 16 -8.9 24 24 NW 8 13 30.25 1025 9 14.48406 0 0
1:54 pm 13:54 Sunny 55 12.8 17 -8.3 22 22 WNW 17 28 30.24 1024 7 11.26538 0 0
2:54 pm 14:54 Hazy 56 13.3 16 -8.9 21 21 NNW 12 19 30.23 1024 3 4.82802 0 0
3:54 pm 15:54 Sunny 57 13.9 14 -10 18 18 NW 16 26 30.22 1023 10 16.0934 0 0
4:54 pm 16:54 Sunny 57 13.9 16 -8.9 20 20 NW 16 26 30.23 1024 10 16.0934 0 0
5:54 pm 17:54 Sunny 55 12.8 17 -8.3 22 22 NNW 16 26 30.24 1024 10 16.0934 0 0
6:54 pm 18:54 Clear 52 11.1 20 -6.7 28 28 NW 6 9 30.26 1025 10 16.0934 0 0
7:54 pm 19:54 Clear 49 9.4 21 -6.1 33 33 W 5 7 30.27 1025 10 16.0934 0 0
8:54 pm 20:54 Clear 45 7.2 23 -5 42 42 Calm 30.29 1026 10 16.0934 0 0
9:54 pm 21:54 Clear 40 4.4 23 -5 51 51 Calm 30.3 1026 10 16.0934 0 0
10:54 pm 22:54 Clear 40 4.4 26 -3.3 58 58 W 3 6 30.31 1027 10 16.0934 0 0
11:54 pm 23:54 Clear 41 5 25 -3.9 53 53 WSW 7 11 30.3 1026 10 16.0934 0 0

Powered by AerisWeather